| time (UTC) | temp C | wind direction | speed KPH | gust KPH | rain 1hr cm | rain 24hr cm | rain mn cm | humidity % | barometer mb |
| 20260506070502 | 5 | 120 | 9.7 | 9.7 | 0.00 | 0.00 | 0.00 | 99 | 1007.6 |
| 20260506062002 | 5 | 110 | 11.3 | 11.3 | 0.00 | 0.00 | 0.00 | 98 | 1008.4 |
| 20260506061502 | 5 | 130 | 4.8 | 4.8 | 0.00 | 0.00 | 0.00 | 98 | 1008.4 |
| 20260506061002 | 6 | 130 | 4.8 | 4.8 | 0.00 | 0.00 | 0.00 | 98 | 1008.4 |
| 20260506060502 | 6 | 130 | 4.8 | 4.8 | 0.00 | 0.00 | 0.00 | 98 | 1008.6 |
| 20260506050502 | 5 | 90 | 3.2 | 3.2 | 0.00 | 0.00 | 0.00 | 95 | 1008.9 |
| 20260506045002 | 5 | 90 | 3.2 | 3.2 | 0.00 | 0.00 | 0.00 | 95 | 1008.7 |
| 20260506044502 | 5 | 50 | 3.2 | 3.2 | 0.00 | 0.00 | 0.00 | 95 | 1008.7 |
| 20260506044002 | 5 | 50 | 3.2 | 3.2 | 0.00 | 0.00 | 0.00 | 95 | 1008.5 |
| 20260506043502 | 5 | 50 | 3.2 | 8.0 | 0.00 | 0.00 | 0.00 | 95 | 1008.6 |
| 20260506043002 | 5 | 50 | 8.0 | 8.0 | 0.00 | 0.00 | 0.00 | 95 | 1008.6 |
| 20260506042502 | 5 | 50 | 8.0 | 8.0 | 0.00 | 0.00 | 0.00 | 95 | 1008.6 |
| 20260506042002 | 5 | 50 | 8.0 | 8.0 | 0.00 | 0.00 | 0.00 | 95 | 1008.4 |
| 20260506041003 | 5 | 170 | 8.0 | 8.0 | 0.00 | 0.00 | 0.00 | 95 | 1008.5 |
| 20260506040502 | 5 | 170 | 8.0 | 8.0 | 0.00 | 0.00 | 0.00 | 95 | 1008.5 |
| 20260506040002 | 5 | 170 | 8.0 | 8.0 | 0.00 | 0.00 | 0.00 | 95 | 1008.5 |
| 20260506035502 | 6 | 170 | 8.0 | 8.0 | 0.00 | 0.00 | 0.00 | 95 | 1008.5 |
| 20260506035002 | 6 | 170 | 8.0 | 8.0 | 0.00 | 0.00 | 0.00 | 94 | 1008.5 |
| 20260506034002 | 6 | 170 | 8.0 | 8.0 | 0.00 | 0.00 | 0.00 | 94 | 1008.5 |
| 20260506033503 | 6 | 170 | 8.0 | 8.0 | 0.00 | 0.00 | 0.00 | 94 | 1008.4 |
| 20260506033002 | 6 | 170 | 8.0 | 8.0 | 0.00 | 0.00 | 0.00 | 94 | 1008.2 |
| 20260506032002 | 6 | 170 | 8.0 | 8.0 | 0.00 | 0.00 | 0.00 | 94 | 1008.1 |
| 20260506031002 | 6 | 180 | 4.8 | 4.8 | 0.00 | 0.00 | 0.00 | 94 | 1008.1 |
| 20260506030502 | 6 | 180 | 4.8 | 4.8 | 0.00 | 0.00 | 0.00 | 94 | 1008.4 |
| 20260506030002 | 6 | 180 | 4.8 | 4.8 | 0.00 | 0.00 | 0.00 | 94 | 1008.4 |
| 20260506025502 | 6 | 180 | 4.8 | 4.8 | 0.00 | 0.00 | 0.00 | 94 | 1008.3 |
| 20260506025002 | 6 | 180 | 4.8 | 4.8 | 0.00 | 0.00 | 0.00 | 93 | 1008.4 |
| 20260506024503 | 6 | 180 | 4.8 | 4.8 | 0.00 | 0.00 | 0.00 | 93 | 1008.5 |
| 20260506024002 | 6 | 180 | 4.8 | 4.8 | 0.00 | 0.00 | 0.00 | 93 | 1008.5 |
| 20260506023502 | 6 | 180 | 4.8 | 4.8 | 0.00 | 0.00 | 0.00 | 92 | 1008.5 |
| 20260506023002 | 6 | 180 | 4.8 | 4.8 | 0.00 | 0.00 | 0.00 | 93 | 1008.6 |
| 20260506022502 | 6 | 180 | 4.8 | 4.8 | 0.00 | 0.00 | 0.00 | 92 | 1008.6 |
| 20260506022003 | 6 | 180 | 4.8 | 8.0 | 0.00 | 0.00 | 0.00 | 92 | 1008.9 |
| 20260506021002 | 6 | 350 | 8.0 | 8.0 | 0.00 | 0.00 | 0.00 | 92 | 1008.6 |
| 20260506020502 | 6 | 350 | 8.0 | 8.0 | 0.00 | 0.00 | 0.00 | 91 | 1008.4 |
| 20260506020002 | 6 | 350 | 8.0 | 8.0 | 0.00 | 0.00 | 0.00 | 91 | 1008.5 |
| 20260506014502 | 6 | 350 | 8.0 | 8.0 | 0.00 | 0.00 | 0.00 | 90 | 1008.3 |
| 20260506014002 | 6 | 350 | 8.0 | 8.0 | 0.00 | 0.00 | 0.00 | 89 | 1007.9 |
| 20260506013002 | 6 | 350 | 8.0 | 8.0 | 0.00 | 0.00 | 0.00 | 87 | 1008.3 |
| 20260506012502 | 6 | 350 | 8.0 | 8.0 | 0.00 | 0.00 | 0.00 | 86 | 1008.3 |
| 20260506012002 | 6 | 350 | 8.0 | 8.0 | 0.00 | 0.00 | 0.00 | 84 | 1008.2 |
| 20260506011502 | 7 | 350 | 8.0 | 8.0 | 0.00 | 0.00 | 0.00 | 80 | 1008.1 |
| 20260506011002 | 7 | 350 | 8.0 | 8.0 | 0.00 | 0.00 | 0.00 | 74 | 1007.9 |
| 20260506010002 | 7 | 350 | 8.0 | 8.0 | 0.00 | 0.00 | 0.00 | 75 | 1007.6 |
| 20260506005502 | 7 | 350 | 8.0 | 8.0 | 0.00 | 0.00 | 0.00 | 75 | 1007.5 |
| 20260506005002 | 7 | 350 | 8.0 | 8.0 | 0.00 | 0.00 | 0.00 | 73 | 1007.4 |
| 20260506004503 | 7 | 350 | 8.0 | 8.0 | 0.00 | 0.00 | 0.00 | 74 | 1007.2 |
| 20260506004002 | 7 | 350 | 8.0 | 8.0 | 0.00 | 0.00 | 0.00 | 75 | 1007.3 |
| 20260506003503 | 7 | 350 | 8.0 | 8.0 | 0.00 | 0.00 | 0.00 | 74 | 1007.1 |
| 20260506003002 | 7 | 350 | 8.0 | 8.0 | 0.00 | 0.00 | 0.00 | 74 | 1007.0 |
| 20260506002502 | 7 | 350 | 8.0 | 8.0 | 0.00 | 0.00 | 0.00 | 74 | 1007.1 |
| 20260506002002 | 7 | 350 | 8.0 | 14.5 | 0.00 | 0.00 | 0.00 | 74 | 1007.1 |
| 20260506001502 | 7 | 350 | 14.5 | 14.5 | 0.00 | 0.00 | 0.00 | 75 | 1006.9 |
| 20260506001002 | 7 | 350 | 14.5 | 14.5 | 0.00 | 0.00 | 0.00 | 74 | 1006.8 |
| 20260506000502 | 7 | 350 | 14.5 | 14.5 | 0.00 | 0.00 | 0.00 | 75 | 1006.8 |
| 20260506000002 | 7 | 350 | 14.5 | 14.5 | 0.00 | 0.00 | 0.00 | 74 | 1006.7 |
| 20260505235002 | 7 | 350 | 14.5 | 14.5 | 0.00 | 0.00 | 0.00 | 75 | 1006.7 |
| 20260505234502 | 7 | 350 | 14.5 | 14.5 | 0.00 | 0.00 | 0.00 | 75 | 1006.6 |
| 20260505234002 | 7 | 350 | 14.5 | 14.5 | 0.00 | 0.00 | 0.00 | 74 | 1006.6 |
| 20260505233503 | 7 | 350 | 14.5 | 14.5 | 0.00 | 0.00 | 0.00 | 74 | 1006.4 |
| 20260505233002 | 7 | 350 | 14.5 | 14.5 | 0.00 | 0.00 | 0.00 | 73 | 1006.5 |
| 20260505232503 | 7 | 350 | 14.5 | 14.5 | 0.00 | 0.00 | 0.00 | 74 | 1006.5 |
| 20260505232002 | 7 | 350 | 14.5 | 14.5 | 0.00 | 0.00 | 0.00 | 74 | 1006.6 |
| 20260505230502 | 8 | 330 | 11.3 | 11.3 | 0.00 | 0.00 | 0.00 | 75 | 1006.8 |
| 20260505230003 | 8 | 330 | 11.3 | 11.3 | 0.00 | 0.00 | 0.00 | 74 | 1006.8 |
| 20260505225502 | 8 | 330 | 11.3 | 11.3 | 0.00 | 0.00 | 0.00 | 74 | 1006.7 |
| 20260505224502 | 8 | 330 | 11.3 | 11.3 | 0.00 | 0.00 | 0.00 | 75 | 1006.7 |
| 20260505224002 | 8 | 330 | 11.3 | 11.3 | 0.00 | 0.00 | 0.00 | 74 | 1006.9 |
| 20260505223502 | 8 | 330 | 11.3 | 11.3 | 0.00 | 0.00 | 0.00 | 75 | 1006.9 |
| 20260505223003 | 8 | 330 | 11.3 | 11.3 | 0.00 | 0.00 | 0.00 | 76 | 1006.8 |
| 20260505222502 | 8 | 330 | 11.3 | 11.3 | 0.00 | 0.00 | 0.00 | 78 | 1006.7 |
| 20260505222002 | 8 | 330 | 11.3 | 12.9 | 0.00 | 0.00 | 0.00 | 81 | 1006.6 |
| 20260505221502 | 8 | 340 | 12.9 | 12.9 | 0.00 | 0.00 | 0.00 | 82 | 1006.6 |
| 20260505221003 | 8 | 340 | 12.9 | 12.9 | 0.00 | 0.00 | 0.00 | 81 | 1006.6 |
| 20260505220502 | 8 | 340 | 12.9 | 12.9 | 0.00 | 0.00 | 0.00 | 82 | 1006.5 |
| 20260505220002 | 8 | 340 | 12.9 | 12.9 | 0.00 | 0.00 | 0.00 | 81 | 1006.4 |
| 20260505215503 | 8 | 340 | 12.9 | 12.9 | 0.00 | 0.00 | 0.00 | 80 | 1006.5 |
| 20260505215003 | 8 | 340 | 12.9 | 12.9 | 0.00 | 0.00 | 0.00 | 80 | 1006.5 |
| 20260505214503 | 8 | 340 | 12.9 | 12.9 | 0.00 | 0.00 | 0.00 | 80 | 1006.6 |
| 20260505214003 | 8 | 340 | 12.9 | 12.9 | 0.00 | 0.00 | 0.00 | 80 | 1006.5 |
| 20260505213502 | 8 | 340 | 12.9 | 12.9 | 0.00 | 0.00 | 0.00 | 81 | 1006.5 |
| 20260505213002 | 8 | 340 | 12.9 | 12.9 | 0.00 | 0.00 | 0.00 | 81 | 1006.4 |
| 20260505212503 | 8 | 340 | 12.9 | 12.9 | 0.00 | 0.00 | 0.00 | 82 | 1006.3 |
| 20260505212002 | 7 | 340 | 12.9 | 32.2 | 0.00 | 0.00 | 0.00 | 85 | 1006.3 |
| 20260505211002 | 7 | 330 | 16.1 | 32.2 | 0.00 | 0.00 | 0.00 | 86 | 1006.2 |
| 20260505210502 | 7 | 330 | 16.1 | 32.2 | 0.00 | 0.00 | 0.00 | 85 | 1006.1 |
| 20260505210003 | 7 | 330 | 16.1 | 32.2 | 0.00 | 0.00 | 0.00 | 84 | 1006.3 |
| 20260505205502 | 8 | 330 | 16.1 | 32.2 | 0.00 | 0.00 | 0.00 | 85 | 1006.3 |
| 20260505205003 | 8 | 330 | 16.1 | 32.2 | 0.00 | 0.00 | 0.00 | 84 | 1006.1 |
| 20260505204502 | 8 | 330 | 16.1 | 32.2 | 0.00 | 0.00 | 0.00 | 85 | 1006.0 |
| 20260505204002 | 7 | 330 | 16.1 | 32.2 | 0.00 | 0.00 | 0.00 | 84 | 1006.1 |
| 20260505203503 | 7 | 330 | 16.1 | 32.2 | 0.00 | 0.00 | 0.00 | 86 | 1006.0 |
| 20260505203002 | 7 | 330 | 16.1 | 32.2 | 0.00 | 0.00 | 0.00 | 87 | 1005.8 |
| 20260505202502 | 7 | 330 | 16.1 | 32.2 | 0.00 | 0.00 | 0.00 | 90 | 1005.7 |
| 20260505201503 | 7 | 330 | 20.9 | 33.8 | 0.00 | 0.00 | 0.00 | 93 | 1006.1 |
| 20260505200002 | 9 | 330 | 20.9 | 33.8 | 0.00 | 0.00 | 0.00 | 85 | 1005.5 |
| 20260505195502 | 10 | 330 | 20.9 | 33.8 | 0.00 | 0.00 | 0.00 | 73 | 1005.4 |
| 20260505194502 | 11 | 330 | 20.9 | 33.8 | 0.00 | 0.00 | 0.00 | 67 | 1005.1 |
| 20260505193502 | 11 | 330 | 20.9 | 33.8 | 0.00 | 0.00 | 0.00 | 65 | 1004.9 |
| 20260505193002 | 11 | 320 | 20.9 | 20.9 | 0.00 | 0.00 | 0.00 | 64 | 1004.6 |
| 20260505192502 | 12 | 320 | 20.9 | 20.9 | 0.00 | 0.00 | 0.00 | 63 | 1004.8 |
| 20260505192002 | 12 | 320 | 20.9 | 24.1 | 0.00 | 0.00 | 0.00 | 64 | 1004.6 |
| 20260505191502 | 12 | 350 | 24.1 | 24.1 | 0.00 | 0.00 | 0.00 | 63 | 1004.4 |
| 20260505191003 | 12 | 350 | 24.1 | 24.1 | 0.00 | 0.00 | 0.00 | 64 | 1004.5 |
| 20260505190503 | 12 | 350 | 24.1 | 24.1 | 0.00 | 0.00 | 0.00 | 64 | 1004.4 |
| 20260505190003 | 12 | 350 | 24.1 | 24.1 | 0.00 | 0.00 | 0.00 | 63 | 1004.4 |
| 20260505185503 | 12 | 350 | 24.1 | 24.1 | 0.00 | 0.00 | 0.00 | 63 | 1004.5 |
| 20260505185002 | 12 | 350 | 24.1 | 24.1 | 0.00 | 0.00 | 0.00 | 63 | 1004.4 |
| 20260505184503 | 12 | 350 | 24.1 | 24.1 | 0.00 | 0.00 | 0.00 | 63 | 1004.2 |
| 20260505184002 | 12 | 350 | 24.1 | 24.1 | 0.00 | 0.00 | 0.00 | 65 | 1004.1 |
| 20260505183003 | 12 | 350 | 24.1 | 24.1 | 0.00 | 0.00 | 0.00 | 65 | 1003.9 |
| 20260505182504 | 12 | 350 | 19.3 | 24.1 | 0.00 | 0.00 | 0.00 | 64 | 1003.9 |
| 20260505181502 | 12 | 310 | 20.9 | 33.8 | 0.00 | 0.00 | 0.00 | 66 | 1003.9 |
| 20260505181001 | 13 | 310 | 20.9 | 33.8 | 0.00 | 0.00 | 0.00 | 66 | 1003.8 |
| 20260505180501 | 13 | 310 | 20.9 | 33.8 | 0.00 | 0.00 | 0.00 | 67 | 1003.7 |
| 20260505180002 | 13 | 310 | 20.9 | 33.8 | 0.00 | 0.00 | 0.00 | 66 | 1003.7 |
| 20260505175503 | 14 | 310 | 19.3 | 33.8 | 0.00 | 0.00 | 0.00 | 67 | 1003.7 |
| 20260505175002 | 15 | 310 | 20.9 | 33.8 | 0.00 | 0.00 | 0.00 | 67 | 1003.4 |
| 20260505174502 | 15 | 310 | 20.9 | 33.8 | 0.00 | 0.00 | 0.00 | 67 | 1003.4 |
| 20260505174004 | 15 | 310 | 19.3 | 33.8 | 0.00 | 0.00 | 0.00 | 65 | 1003.7 |
| 20260505172503 | 14 | 310 | 20.9 | 33.8 | 0.00 | 0.00 | 0.00 | 72 | 1002.9 |
| 20260505172003 | 14 | 310 | 20.9 | 33.8 | 0.00 | 0.00 | 0.00 | 70 | 1002.6 |
| 20260505171502 | 14 | 290 | 16.1 | 16.1 | 0.00 | 0.00 | 0.00 | 71 | 1002.8 |
| 20260505171002 | 14 | 290 | 16.1 | 16.1 | 0.00 | 0.00 | 0.00 | 73 | 1002.7 |
| 20260505170002 | 13 | 290 | 16.1 | 16.1 | 0.00 | 0.00 | 0.00 | 73 | 1002.6 |
| 20260505165503 | 13 | 290 | 16.1 | 16.1 | 0.00 | 0.00 | 0.00 | 73 | 1002.8 |
| 20260505165002 | 12 | 290 | 16.1 | 16.1 | 0.00 | 0.00 | 0.00 | 75 | 1002.9 |
| 20260505164002 | 12 | 290 | 16.1 | 16.1 | 0.00 | 0.00 | 0.00 | 77 | 1003.0 |
| 20260505163503 | 12 | 290 | 16.1 | 16.1 | 0.00 | 0.00 | 0.00 | 78 | 1003.0 |
| 20260505163003 | 12 | 290 | 16.1 | 16.1 | 0.00 | 0.00 | 0.00 | 77 | 1003.0 |
| 20260505162502 | 12 | 290 | 16.1 | 16.1 | 0.00 | 0.00 | 0.00 | 78 | 1002.8 |
| 20260505162002 | 12 | 290 | 16.1 | 32.2 | 0.00 | 0.00 | 0.00 | 78 | 1002.9 |
| 20260505161503 | 12 | 280 | 14.5 | 32.2 | 0.00 | 0.00 | 0.00 | 79 | 1002.8 |
| 20260505161002 | 12 | 280 | 14.5 | 32.2 | 0.00 | 0.00 | 0.00 | 78 | 1002.6 |
| 20260505160503 | 12 | 280 | 14.5 | 32.2 | 0.00 | 0.00 | 0.00 | 77 | 1002.3 |
| 20260505152502 | 13 | 300 | 14.5 | 32.2 | 0.00 | 0.00 | 0.00 | 77 | 1001.9 |
| 20260505151502 | 14 | 300 | 25.7 | 25.7 | 0.00 | 0.00 | 0.00 | 75 | 1001.5 |
| 20260505140502 | 12 | 210 | 16.1 | 32.2 | 0.00 | 0.00 | 0.00 | 86 | 1000.4 |
| 20260505124003 | 11 | 220 | 22.5 | 40.2 | 0.00 | 0.00 | 0.00 | 88 | 999.3 |
| 20260505123502 | 11 | 220 | 22.5 | 40.2 | 0.00 | 0.00 | 0.00 | 89 | 999.2 |
| 20260505123002 | 11 | 220 | 22.5 | 40.2 | 0.00 | 0.00 | 0.00 | 90 | 999.2 |
| 20260505122503 | 11 | 220 | 22.5 | 40.2 | 0.00 | 0.00 | 0.00 | 90 | 999.1 |
| 20260505121003 | 10 | 220 | 14.5 | 14.5 | 0.00 | 0.00 | 0.00 | 91 | 999.2 |
| 20260505120503 | 10 | 220 | 14.5 | 14.5 | 0.00 | 0.00 | 0.00 | 90 | 999.4 |
| 20260505120003 | 10 | 220 | 14.5 | 14.5 | 0.00 | 0.00 | 0.00 | 91 | 999.4 |
| 20260505115503 | 10 | 220 | 14.5 | 14.5 | 0.00 | 0.00 | 0.00 | 91 | 999.3 |
| 20260505115003 | 10 | 220 | 14.5 | 14.5 | 0.00 | 0.00 | 0.00 | 91 | 999.1 |
| 20260505114502 | 10 | 220 | 14.5 | 14.5 | 0.00 | 0.00 | 0.00 | 92 | 999.0 |
| 20260505113502 | 10 | 220 | 14.5 | 14.5 | 0.00 | 0.00 | 0.00 | 92 | 999.3 |
| 20260505113003 | 9 | 220 | 14.5 | 14.5 | 0.00 | 0.00 | 0.00 | 92 | 999.5 |
| 20260505112002 | 10 | 220 | 14.5 | 33.8 | 0.00 | 0.00 | 0.00 | 92 | 998.8 |
| 20260505111503 | 9 | 210 | 14.5 | 33.8 | 0.00 | 0.00 | 0.00 | 92 | 998.8 |
| 20260505111003 | 9 | 210 | 14.5 | 33.8 | 0.00 | 0.00 | 0.00 | 93 | 998.8 |
| 20260505110502 | 9 | 210 | 14.5 | 33.8 | 0.00 | 0.00 | 0.00 | 93 | 998.9 |
| 20260505102002 | 9 | 210 | 14.5 | 33.8 | 0.00 | 0.00 | 0.00 | 92 | 997.9 |
| 20260505101503 | 9 | 210 | 16.1 | 16.1 | 0.00 | 0.00 | 0.00 | 92 | 998.0 |
| 20260505101002 | 9 | 210 | 16.1 | 16.1 | 0.00 | 0.00 | 0.00 | 93 | 998.2 |
| 20260505100503 | 9 | 210 | 16.1 | 16.1 | 0.00 | 0.00 | 0.00 | 93 | 998.2 |
| 20260505100003 | 9 | 210 | 16.1 | 16.1 | 0.00 | 0.00 | 0.00 | 93 | 998.2 |
| 20260505095502 | 9 | 210 | 16.1 | 16.1 | 0.00 | 0.00 | 0.00 | 93 | 998.2 |
| 20260505095003 | 9 | 210 | 16.1 | 16.1 | 0.00 | 0.00 | 0.00 | 93 | 998.1 |
| 20260505094003 | 9 | 210 | 16.1 | 16.1 | 0.00 | 0.00 | 0.00 | 93 | 998.2 |
| 20260505093502 | 9 | 210 | 16.1 | 16.1 | 0.00 | 0.00 | 0.00 | 93 | 998.2 |
| 20260505093003 | 9 | 210 | 16.1 | 16.1 | 0.00 | 0.00 | 0.00 | 93 | 998.2 |
| 20260505092003 | 9 | 210 | 16.1 | 16.1 | 0.00 | 0.00 | 0.00 | 93 | 998.0 |
| 20260505091503 | 9 | 190 | 4.8 | 4.8 | 0.00 | 0.00 | 0.00 | 93 | 998.0 |
| 20260505091003 | 9 | 190 | 4.8 | 4.8 | 0.00 | 0.00 | 0.00 | 93 | 998.1 |
| 20260505090502 | 9 | 190 | 4.8 | 4.8 | 0.00 | 0.00 | 0.00 | 93 | 998.1 |
| 20260505090003 | 10 | 190 | 4.8 | 4.8 | 0.00 | 0.00 | 0.00 | 93 | 998.0 |
| 20260505085502 | 10 | 190 | 4.8 | 4.8 | 0.00 | 0.00 | 0.00 | 93 | 998.1 |
| 20260505085003 | 10 | 190 | 4.8 | 4.8 | 0.00 | 0.00 | 0.00 | 93 | 998.2 |
| 20260505084502 | 10 | 190 | 4.8 | 4.8 | 0.00 | 0.00 | 0.00 | 94 | 998.0 |
| 20260505084003 | 9 | 190 | 4.8 | 4.8 | 0.00 | 0.00 | 0.00 | 94 | 998.1 |
| 20260505083502 | 9 | 190 | 4.8 | 4.8 | 0.00 | 0.00 | 0.00 | 94 | 998.2 |
| 20260505082503 | 9 | 190 | 4.8 | 4.8 | 0.00 | 0.00 | 0.00 | 94 | 998.4 |
| 20260505082002 | 9 | 190 | 4.8 | 12.9 | 0.00 | 0.00 | 0.00 | 94 | 998.3 |
| 20260505080003 | 8 | 200 | 12.9 | 12.9 | 0.00 | 0.00 | 0.00 | 93 | 998.4 |
| 20260505075002 | 8 | 200 | 12.9 | 12.9 | 0.00 | 0.00 | 0.00 | 93 | 998.6 |
| 20260505074002 | 8 | 200 | 12.9 | 12.9 | 0.00 | 0.00 | 0.00 | 93 | 998.5 |
| 20260505073503 | 8 | 200 | 12.9 | 12.9 | 0.00 | 0.00 | 0.00 | 93 | 998.4 |
| 20260505073003 | 8 | 200 | 12.9 | 12.9 | 0.00 | 0.00 | 0.00 | 93 | 998.4 |
| 20260505072503 | 8 | 200 | 12.9 | 12.9 | 0.00 | 0.00 | 0.00 | 93 | 998.4 |
| 20260505071502 | 8 | 210 | 14.5 | 32.2 | 0.00 | 0.00 | 0.00 | 93 | 998.6 |
| 20260505071003 | 8 | 210 | 14.5 | 32.2 | 0.00 | 0.00 | 0.00 | 93 | 998.6 |